This is the latest recevied weather packets stored in our database for station/object F5OWB. If no packets are shown the sender has not sent any weather packets the latest 10 day(s).
| Time | Temp. | Humidity | Pressure | Rain* | Wind** | Luminosity | Snow |
|---|---|---|---|---|---|---|---|
| 1778152802 | 15.56° C | 70% | 1018.3 hPa | 0 mm | - | 828 W/m² | - |
| 1778152740 | 15.56° C | 71% | 1018.5 hPa | 0 mm | - | 826 W/m² | - |
| 1778152683 | 15.56° C | 67% | 1018.3 hPa | 0 mm | - | 830 W/m² | - |
| 1778152622 | 15.56° C | 69% | 1018.5 hPa | 0 mm | - | 828 W/m² | - |
| 1778152556 | 15.56° C | 72% | 1018.3 hPa | 0 mm | - | 830 W/m² | - |
| 1778152498 | 15.56° C | 70% | 1018.5 hPa | 0 mm | - | 835 W/m² | - |
| 1778152438 | 15.56° C | 71% | 1018.3 hPa | 0 mm | - | 838 W/m² | - |
| 1778152374 | 15.56° C | 70% | 1018.5 hPa | 0 mm | - | 842 W/m² | - |
| 1778152315 | 15.56° C | 70% | 1018.5 hPa | 0 mm | - | 847 W/m² | - |
| 1778152254 | 15.56° C | 70% | 1018.5 hPa | 0 mm | - | 851 W/m² | - |
| 1778152191 | 15.56° C | 71% | 1018.5 hPa | 0 mm | - | 849 W/m² | - |
| 1778152128 | 15° C | 70% | 1018.5 hPa | 0 mm | - | 874 W/m² | - |
| 1778152069 | 15° C | 71% | 1018.5 hPa | 0 mm | - | 877 W/m² | - |
| 1778152010 | 15° C | 72% | 1018.5 hPa | 0 mm | - | 889 W/m² | - |
| 1778151948 | 15° C | 71% | 1018.6 hPa | 0 mm | - | 900 W/m² | - |
| 1778151886 | 15° C | 71% | 1018.5 hPa | 0 mm | - | 236 W/m² | - |
| 1778151819 | 15° C | 71% | 1018.5 hPa | 0 mm | - | 236 W/m² | - |
| 1778151760 | 15° C | 70% | 1018.5 hPa | 0 mm | - | 236 W/m² | - |
| 1778151759 | 15° C | 70% | 1018.5 hPa | 0 mm | - | 236 W/m² | - |
| 1778151697 | 15° C | 71% | 1018.5 hPa | 0 mm | - | 218 W/m² | - |
| 1778151637 | 15° C | 71% | 1018.5 hPa | 0 mm | - | 223 W/m² | - |
| 1778151579 | 15.56° C | 70% | 1018.5 hPa | 0 mm | - | 223 W/m² | - |
| 1778151517 | 15.56° C | 71% | 1018.5 hPa | 0 mm | - | 218 W/m² | - |
| 1778151455 | 15.56° C | 69% | 1018.5 hPa | 0 mm | - | 213 W/m² | - |
| 1778151400 | 15.56° C | 70% | 1018.5 hPa | 0 mm | - | 225 W/m² | - |
* Rain latest hour (hover to see other rain measurements)
** Current wind speed in m/s (hover to see current wind gust speed)